Regional Weather Roundup
Issued by NWS Columbia, SC

Home | Current Version | Previous Version | Text Only | Print | Product List | Glossary On
Versions: 1 2 3 4 5 6 7 8 9 10 11 12 13 14 15 16 17 18 19 20 21 22 23 24 25 26 27 28 29 30 31 32 33 34 35 36 37 38 39 40 41 42 43 44 45 46 47 48 49 50
000
ASUS42 KCAE 311010
RWRCAE
REGIONAL WEATHER ROUNDUP
NATIONAL WEATHER SERVICE COLUMBIA SC
600 AM EDT MON AUG 31 2015

NOTE: "FAIR" INDICATES FEW OR NO CLOUDS BELOW 12,000 FEET WITH NO
SIGNIFICANT WEATHER AND/OR OBSTRUCTIONS TO VISIBILITY.

NOT ALL STATIONS ARE QUALITY CONTROLLED BY THE NATIONAL
WEATHER SERVICE. USE DATA WITH CAUTION...ESPECIALLY
DEWPOINT OBSERVATIONS.

SCZ001>056-GAZ040-063>065-077-311100-
...UPSTATE SOUTH CAROLINA...

CITY           SKY/WX    TMP DP  RH WIND       PRES   REMARKS
ANDERSON       PTCLDY    63  62  97 NE3       30.10F
LIBERTY        SUNNY     58  58  98 NE5       30.10F
SPARTANBURG    PTCLDY    66  64  94 CALM      30.10F
CLEMSON        CLEAR     64  61  90 CALM      30.12F
GREENVILLE     CLEAR     64  61  90 N6        30.12F
GREENWOOD      CLOUDY    67  66  97 N3        30.11S FOG
GREER          PTCLDY    64  63  96 N3        30.10F
ROCK HILL      CLOUDY    68  67  96 NE3       30.10F
CHESTER        MOSUNNY   66  64  94 N3        30.11S FOG
LAURENS        CLOUDY    64  64 100 N3        30.10S FOG


...CENTRAL SOUTH CAROLINA...

CITY           SKY/WX    TMP DP  RH WIND       PRES   REMARKS
COLUMBIA APT   CLOUDY    71  67  87 N3        30.06R
COLUMBIA OWENS CLOUDY    70  67  90 CALM      30.07S
DARLINGTON     CLOUDY    70  64  83 N5        30.07F
FLORENCE       HVY RAIN  71  68  90 N6        30.06F FOG
MCENTIRE ANGB  CLOUDY    69  67  94 CALM      30.06S
ORANGEBURG     CLOUDY    73  70  90 NE5       30.05R
SUMTER SHAW    CLOUDY    69  67  92 N3        30.04R
NEWBERRY       CLOUDY    64  64 100 N7        30.12S FOG
AIKEN          CLOUDY    57  55  94 N3        30.10S
BARNWELL       CLOUDY    72  72 100 N6        30.05S
MANNING        FAIR      72  72 100 CALM      30.05R
CAMDEN         PTSUNNY   68  68 100 CALM      30.07S
LANCASTER      SUNNY     66  66 100 CALM      30.09S
WINNSBORO      FOG       66  66 100 N5        30.08S VSB 3/4


...EASTERN AND COASTAL SOUTH CAROLINA...

CITY           SKY/WX    TMP DP  RH WIND       PRES   REMARKS
MYRTLE BEACH   CLOUDY    75  70  83 S10G16    30.08R
N MYRTLE BCH   LGT RAIN  78  72  81 S5        30.05R
CONWAY         PTSUNNY   72 N/A N/A CALM      30.05S HAZE
MARION         LGT RAIN  72  70  94 CALM      30.06S
HARTSVILLE     CLOUDY    68  66  94 CALM      30.06F
FLORENCE       HVY RAIN  71  68  90 N6        30.06F FOG
DARLINGTON     CLOUDY    70  64  83 N5        30.07F
CHARLESTON APT HVY RAIN  75  73  93 W7        30.02S FOG
MOUNT PLEASANT LGT RAIN  75  75 100 N3        30.02S
WALTERBORO     DRIZZLE   73  72  94 CALM      30.03F
BEAUFORT       RAIN      75  73  94 NE6       30.01F


...EASTERN GEORGIA...

CITY           SKY/WX    TMP DP  RH WIND       PRES   REMARKS
AUGUSTA BUSH F CLOUDY    69  68  96 N5        30.05S FOG
AUGUSTA DANIEL CLOUDY    70  67  90 N7        30.07S FOG
THOMSON        CLOUDY    70  70 100 N3        30.12S
WASHINGTON     FOG       68  68 100 NE3       30.09S VSB 1
SYLVANIA       FOG       74  74 100 N5        30.04F VSB 1/2
STATESBORO     FOG       73  32  22 N3        30.03S VSB 1
SAVANNAH       MOCLDY    74  72  93 N6        30.01F


...SOUTHERN NORTH CAROLINA...

CITY           SKY/WX    TMP DP  RH WIND       PRES   REMARKS
CHARLOTTE      CLOUDY    68  66  93 N3        30.10F
MONROE         MOCLDY    66  64  93 NE5       30.09F
WADESBORO      CLOUDY    68  67  95 W3        30.08S
ROCKINGHAM     CLOUDY    67  67  99 CALM      30.07F
RUTHERFORDTON  PTCLDY    64  64 100 CALM      30.13S
ASHEVILLE      MOCLDY    61  59  93 CALM      30.17S

$$


USA.gov is the U.S. government's official web portal to all federal, state and local government web resources and services.